Location: Broletto
(44.6000°N, 10.5833°E)
Time: 02:21:14
(UTC+00:00)

ARIANE 5 R/B - Pass Details

Date: 18 April 2021
Orbit: 620 x 656 km, 98.1° (Epoch: 06 May)

Event Time Altitude Azimuth Distance (km) Brightness Sun altitude
Exits shadow 20:09:19 43° 96° (E) 900 3.0 -20.0°
Maximum altitude 20:09:56 46° 71° (ENE) 859 3.0 -20.1°
Drops below altitude 10° 20:14:09 10° 359° (N) 2,024 5.8 -20.6°
Sets 20:16:24 0° 353° (N) 2,931 6.8 -20.9°
